Terug naar catalogus

STARLINK-33655

ActiefCommunicatieVLEO
NORAD 63424·PAYLOAD·🇺🇸 United States

Gelanceerd Mar 31, 2025 vanaf Cape Canaveral Space Force Station

Loading…

Volgende Passages (komende 24 uur)

TLE

VersSource: CelesTrak SupGP

Epoch: Sep 15, 2026, 03:28 UTC

1 63424C 25065AB  26258.14493056  .00037190  00000+0  13467-2 0  2582
2 63424  42.9994 117.4603 0001467 275.6822 315.9216 15.27566703    10

Volg STARLINK-33655 in realtime met AllMySat

Download on the App Store